Flag for U.S.A. Weather past 2 weeks in El Monte, California, U.S.A.

Now
77 °F

Sunny.


Feels Like: 79 °F
Forecast: 66 / 92 °F
Wind: 3 mph from West

Location: Fullerton Municipal Airport

Current Time: Aug 29, 2014 at 8:18:52 PM

Latest Report: Aug 29, 2014 at 7:53 PM


Visibility: 10 mi

Pressure: 29.79 "Hg

Humidity: 52%

Dew point: 58 °F

Location of El MonteLocation

Historic Weather in El Monte — Graph

°F

El Monte temperature yesterday

Maximum temperature yesterday: 96 °F (at 2:53 PM)
Minimum temperature yesterday: 69 °F (at 5:53 AM)
Average temperature yesterday: 81 °F

Past Weeks' High & Low Weather Summary

 TemperatureHumidityPressure
High96 °F (Aug 28, 2:53 PM)87% (Aug 18, 6:53 AM)30.01 "Hg (Aug 18, 6:53 AM)
Low66 °F (Aug 15, 3:53 AM)18% (Aug 16, 3:53 PM)29.78 "Hg (Aug 18, 4:53 PM)
Average76 °F57%29.90 "Hg
* Reported Aug 14 6:53 PM — Aug 29 6:53 PM, El Monte, Weather by CustomWeather, © 2014

Note: Actual official high and low records may vary slightly from our data, if they occured in-between our weather recording intervals... More about our weather records

Advertising

El Monte weather history for previous 24 hours

 ConditionsComfort  
Time TempWeatherWind HumidityBarometerVisibility
6:53 PM
Aug 29
81 °FSunny.5 mph45%29.78 "Hg10 mi
5:53 PM83 °FSunny.7 mph38%29.78 "Hg10 mi
4:53 PM85 °FSunny.8 mph39%29.78 "Hg10 mi
3:53 PM86 °FSunny.9 mph36%29.79 "Hg10 mi
2:53 PM86 °FSunny.9 mph39%29.81 "Hg10 mi
1:53 PM87 °FSunny.8 mph36%29.82 "Hg10 mi
11:53 AM86 °FSunny.8 mph40%29.85 "Hg10 mi
10:53 AM83 °FSunny.5 mph40%29.87 "Hg10 mi
9:53 AM79 °FSunny.3 mph48%29.87 "Hg10 mi
8:53 AM75 °FSunny.No wind58%29.87 "Hg10 mi
7:53 AM72 °FSunny.No wind64%29.87 "Hg10 mi
6:53 AM68 °FClear.No wind73%29.88 "Hg10 mi
5:53 AM67 °FClear.No wind73%29.86 "Hg10 mi
4:53 AM67 °FClear.No wind71%29.85 "Hg10 mi
3:53 AM69 °FClear.No wind73%29.85 "Hg10 mi
2:53 AM70 °FClear.No wind71%29.86 "Hg10 mi
1:53 AM71 °FClear.No wind66%29.87 "Hg10 mi
12:53 AM73 °FClear.No wind51%29.88 "Hg10 mi
11:53 PM
Aug 28
74 °FClear.No wind48%29.88 "Hg10 mi
10:53 PM75 °FClear.3 mph50%29.89 "Hg10 mi
9:53 PM78 °FClear.No wind31%29.89 "Hg10 mi
8:53 PM80 °FClear.No wind27%29.88 "Hg10 mi
Weather by CustomWeather, © 2014

See weather overviewHow to use our weather pages